Home   Weather   Schönebeck   Past weeks

Flag for Germany Past Weather in Schönebeck, Saxony-Anhalt, Germany — Yesterday and Last 2 Weeks

46 °F

Light rain. Broken clouds.

Feels Like: 44 °F
Forecast: 39 / 49 °F
Wind: 6 mph from North

Location: Leipzig-Schkeuditz

Current Time: Oct 25, 2016 at 8:45:01 AM

Latest Report: Oct 25, 2016 at 8:20 AM

Visibility: 3 mi

Pressure: 30.07 "Hg

Humidity: 100%

Dew Point: 46 °F

Location of SchönebeckLocation

Past Weather in Schönebeck — Graph


Schönebeck Temperature Yesterday

Maximum temperature yesterday: 50 °F (at 1:50 PM)
Minimum temperature yesterday: 39 °F (at 12:20 AM)
Average temperature yesterday: 45 °F

High & Low Weather Summary for the Past Weeks

High64 °F (Oct 16, 2:20 PM)100% (Oct 10, 8:20 AM)30.24 "Hg (Oct 10, 8:20 AM)
Low32 °F (Oct 23, 3:50 AM)52% (Oct 16, 4:20 PM)29.77 "Hg (Oct 15, 1:50 AM)
Average47 °F89%30.03 "Hg
* Reported Oct 10 7:20 AM — Oct 25 7:20 AM, Schönebeck, Weather by CustomWeather, © 2016

Note: Actual official high and low records may vary slightly from our data, if they occured in-between our weather recording intervals... More about our weather records


Schönebeck Weather History for the Previous 24 Hours

Scroll right to see more
Time TempWeatherWind HumidityBarometerVisibility
7:20 AM
Tue, Oct 25
46 °FDrizzle. Fog.9 mph100%30.07 "Hg2 mi
6:50 AM46 °FDrizzle. Fog.8 mph100%30.04 "Hg2 mi
6:20 AM46 °FDrizzle. Fog.7 mph100%30.04 "Hg2 mi
5:50 AM46 °FDrizzle. Fog.6 mph100%30.04 "Hg1 mi
5:20 AM46 °FDrizzle. Fog.6 mph100%30.01 "Hg1 mi
4:50 AM46 °FDrizzle. Fog.6 mph100%30.01 "Hg1 mi
4:20 AM46 °FDrizzle. Fog.5 mph100%29.98 "Hg0 mi
3:50 AM46 °FDrizzle. Fog.5 mph100%29.98 "Hg0 mi
3:20 AM46 °FDrizzle. Fog.5 mph100%29.98 "Hg0 mi
2:50 AM46 °FDrizzle. Fog.5 mph100%30.01 "Hg1 mi
2:20 AM46 °FDrizzle. Fog.6 mph100%29.98 "Hg1 mi
1:50 AM46 °FDrizzle. Fog.7 mph100%29.98 "Hg1 mi
1:20 AM46 °FFog.8 mph100%29.98 "Hg1 mi
12:50 AM46 °FDrizzle. Fog.7 mph100%29.98 "Hg1 mi
12:20 AM46 °FDrizzle. Fog.3 mph100%29.98 "Hg1 mi
11:50 PM
Mon, Oct 24
46 °FDrizzle. Fog.5 mph100%29.98 "Hg1 mi
11:20 PM46 °FDrizzle. Fog.5 mph100%29.98 "Hg1 mi
10:50 PM46 °FDrizzle. Fog.6 mph100%29.98 "Hg2 mi
10:20 PM46 °FDrizzle. Fog.7 mph100%29.98 "Hg2 mi
9:50 PM46 °FDrizzle. Fog.8 mph100%29.98 "Hg2 mi
9:20 PM46 °FDrizzle. Fog.8 mph100%29.95 "Hg2 mi
8:50 PM46 °FLight rain. Fog.8 mph100%29.98 "Hg2 mi
8:20 PM46 °FLight rain. Fog.10 mph100%29.95 "Hg3 mi
7:50 PM46 °FLight rain. Fog.8 mph100%29.98 "Hg2 mi
7:20 PM46 °FRain. Fog.9 mph100%29.98 "Hg2 mi
6:50 PM46 °FLight rain. Fog.10 mph100%29.95 "Hg2 mi
6:20 PM48 °FLight rain. Fog.9 mph94%29.98 "Hg1 mi
5:50 PM48 °FDrizzle. Partly sunny.7 mph94%29.98 "Hg1 mi
5:20 PM48 °FDrizzle. Mostly cloudy.7 mph94%29.98 "Hg1 mi
4:50 PM48 °FDrizzle. Partly sunny.8 mph94%29.95 "Hg1 mi
4:20 PM48 °FDrizzle. Partly sunny.7 mph100%29.98 "Hg2 mi
3:50 PM50 °FLight rain. Partly sunny.7 mph94%29.98 "Hg3 mi
3:20 PM50 °FLight rain. Partly sunny.6 mph94%29.98 "Hg4 mi
2:50 PM50 °FLight rain. Mostly cloudy.6 mph94%29.98 "HgN/A
2:20 PM50 °FLight rain. Mostly cloudy.7 mph88%29.98 "HgN/A
1:50 PM50 °FOvercast.8 mph88%29.98 "HgN/A
1:20 PM48 °FMore clouds than sun.7 mph94%30.01 "Hg5 mi
12:50 PM48 °FMore clouds than sun.6 mph87%30.01 "Hg5 mi
12:20 PM48 °FBroken clouds.7 mph87%30.01 "Hg5 mi
11:50 AM46 °FLight rain. Partly sunny.2 mph93%30.01 "HgN/A
11:20 AM46 °FPartly sunny.2 mph93%30.01 "Hg6 mi
10:50 AM45 °FPartly sunny.2 mph93%30.01 "Hg4 mi
10:20 AM45 °FFog.2 mph93%30.01 "Hg3 mi
9:50 AM43 °FFog.3 mph100%29.98 "Hg3 mi
9:20 AM43 °FFog.5 mph93%29.98 "Hg2 mi
8:50 AM41 °FFog.6 mph100%29.98 "Hg2 mi
8:20 AM41 °FFog.5 mph100%29.98 "Hg2 mi
Weather by CustomWeather, © 2016

See weather overviewHow to use our weather pages